FW2167 Weather Reports


time (UTC)temp
C
wind
direction
speed
KPH
gust
KPH
rain 1hr
cm
rain 24hr
cm
rain mn
cm
humidity
%
barometer
mb
20260509033203 19 283 16.1 29.0 0.00 0.61 0.30 72 1004.1
20260509032704 19 283 12.9 22.5 0.00 0.61 0.30 77 1003.8
20260509032205 18 294 11.3 20.9 0.00 0.61 0.30 78 1003.7
20260509031704 18 300 11.3 22.5 0.00 0.61 0.30 80 1004.1
20260509030704 18 279 14.5 24.1 0.00 0.61 0.30 79 1004.3
20260509030204 18 286 14.5 20.9 0.00 0.61 0.30 78 1004.1
20260509025704 18 279 12.9 20.9 0.00 0.61 0.30 78 1004.1
20260509025205 18 287 11.3 19.3 0.00 0.61 0.30 77 1004.3
20260509024704 18 292 14.5 20.9 0.00 0.61 0.30 76 1004.3
20260509023704 19 293 17.7 25.7 0.00 0.61 0.30 74 1004.2
20260509023204 20 299 20.9 32.2 0.00 0.61 0.30 74 1004.1
20260509022704 20 297 16.1 25.7 0.00 0.61 0.30 73 1004.3
20260509022204 20 285 14.5 29.0 0.00 0.61 0.30 75 1004.2
20260509021703 20 292 14.5 22.5 0.00 0.61 0.30 75 1004.2
20260509021204 20 283 16.1 25.7 0.00 0.61 0.30 75 1004.3
20260509020704 19 292 12.9 29.0 0.00 0.61 0.30 75 1004.1
20260509015204 19 314 16.1 24.1 0.00 0.61 0.30 76 1004.4
20260509014203 19 296 14.5 24.1 0.00 0.61 0.30 78 1004.5
20260509013704 19 309 19.3 32.2 0.00 0.61 0.30 78 1004.5
20260509012705 19 321 11.3 33.8 0.00 0.61 0.30 78 1004.5
20260509012204 19 316 19.3 29.0 0.00 0.61 0.30 78 1004.4
20260509011204 19 278 16.1 27.4 0.00 0.61 0.30 77 1004.6
20260509010704 19 290 14.5 27.4 0.00 0.61 0.30 77 1004.8
20260509010204 19 290 17.7 24.1 0.00 0.61 0.30 78 1004.7
20260509005704 19 290 16.1 27.4 0.00 0.61 0.30 77 1004.8
20260509005204 18 303 17.7 25.7 0.00 0.61 0.30 78 1004.9
20260509004704 18 280 17.7 33.8 0.00 0.61 0.30 77 1005.2
20260509003704 18 282 16.1 25.7 0.03 0.61 0.30 78 1005.2
20260509003205 18 270 16.1 24.1 0.03 0.61 0.30 81 1005.4
20260509002704 18 263 14.5 22.5 0.03 0.61 0.30 81 1005.5
20260509002204 18 278 11.3 22.5 0.03 0.61 0.30 86 1005.4
20260509001704 17 277 16.1 24.1 0.03 0.61 0.30 88 1005.6
20260509001205 17 268 12.9 20.9 0.03 0.61 0.30 88 1005.9
20260509000703 17 273 8.0 14.5 0.03 0.61 0.30 88 1005.9
20260509000204 17 271 8.0 20.9 0.03 0.61 0.30 86 1005.9
20260508235704 17 254 11.3 27.4 0.00 0.61 0.30 84 1006.1
20260508235204 17 283 11.3 24.1 0.00 0.61 0.30 92 1006.4
20260508234705 16 288 14.5 24.1 0.00 0.61 0.30 89 1006.1
20260508234204 17 319 19.3 25.7 0.00 0.58 0.28 87 1006.1
20260508233704 17 311 16.1 25.7 0.00 0.58 0.28 85 1006.1
20260508232704 18 319 11.3 19.3 0.00 0.58 0.28 84 1006.2
20260508232204 18 313 9.7 19.3 0.00 0.58 0.28 85 1006.2
20260508231704 18 300 11.3 19.3 0.03 0.58 0.28 83 1006.4
20260508231205 18 299 9.7 19.3 0.03 0.58 0.28 84 1006.5
20260508230204 17 305 8.0 12.9 0.03 0.58 0.28 89 1006.5
20260508225204 16 297 8.0 16.1 0.03 0.58 0.28 86 1006.6
20260508224704 17 294 9.7 14.5 0.03 0.58 0.28 86 1006.8
20260508224204 17 305 11.3 16.1 0.03 0.58 0.28 88 1006.8
20260508222704 17 296 11.3 20.9 0.03 0.58 0.28 87 1006.8
20260508222204 17 299 14.5 29.0 0.03 0.58 0.28 84 1006.9
20260508221704 18 296 16.1 25.7 0.00 0.56 0.28 85 1007.0
20260508221204 18 310 19.3 27.4 0.00 0.56 0.28 84 1007.0
20260508220704 18 306 16.1 27.4 0.00 0.56 0.28 84 1007.2
20260508220204 18 311 14.5 22.5 0.00 0.56 0.28 85 1007.0
20260508215704 18 321 12.9 25.7 0.00 0.56 0.28 87 1007.2
20260508214705 17 306 12.9 22.5 0.00 0.56 0.28 88 1007.1
20260508213704 17 313 9.7 16.1 0.00 0.56 0.28 88 1007.2
20260508213204 17 310 8.0 16.1 0.00 0.56 0.28 89 1007.1
20260508212704 17 314 9.7 20.9 0.00 0.56 0.28 90 1007.1
20260508212204 17 318 14.5 20.9 0.00 0.56 0.28 91 1007.3
20260508211204 16 291 8.0 12.9 0.00 0.56 0.28 94 1007.4
20260508210704 16 342 4.8 11.3 0.00 0.56 0.28 95 1007.3
20260508210204 16 326 8.0 11.3 0.00 0.56 0.28 97 1007.1
20260508205705 15 332 6.4 11.3 0.00 0.56 0.28 98 1007.3
20260508205205 15 348 6.4 9.7 0.00 0.56 0.28 98 1007.1
20260508204204 15 307 3.2 4.8 0.00 0.56 0.28 98 1007.0
20260508203704 15 322 1.6 4.8 0.00 0.56 0.28 98 1007.2
20260508203205 15 301 3.2 4.8 0.00 0.56 0.28 98 1007.1
20260508202704 15 10 3.2 4.8 0.00 0.56 0.28 98 1007.1
20260508202205 14 4 3.2 3.2 0.00 0.56 0.28 98 1007.0
20260508201704 14 337 1.6 3.2 0.00 0.56 0.28 98 1007.0
20260508201205 14 349 3.2 3.2 0.00 0.56 0.28 98 1006.9
20260508200204 14 351 0.0 4.8 0.00 0.56 0.28 98 1006.9
20260508195705 14 70 1.6 3.2 0.00 0.56 0.28 98 1006.8
20260508195204 14 259 0.0 1.6 0.00 0.56 0.28 98 1006.8
20260508194705 13 281 0.0 3.2 0.00 0.56 0.28 98 1006.8
20260508194204 13 14 0.0 3.2 0.00 0.56 0.28 98 1006.7
20260508193704 13 293 0.0 1.6 0.00 0.56 0.28 98 1006.6
20260508193204 13 224 0.0 1.6 0.00 0.56 0.28 98 1006.5
20260508192704 13 292 1.6 1.6 0.00 0.56 0.28 98 1006.6
20260508191205 13 296 0.0 3.2 0.00 0.56 0.28 98 1006.6
20260508190704 13 349 1.6 3.2 0.00 0.56 0.28 98 1006.5
20260508190205 13 0 1.6 3.2 0.00 0.56 0.28 98 1006.3
20260508185204 13 68 1.6 1.6 0.00 0.56 0.28 98 1006.5
20260508184705 13 142 0.0 3.2 0.00 0.56 0.28 98 1006.5
20260508184204 13 338 1.6 3.2 0.00 0.56 0.28 98 1006.4
20260508183705 13 34 0.0 3.2 0.00 0.56 0.28 98 1006.3
20260508183205 13 74 1.6 4.8 0.00 0.56 0.28 98 1006.6
20260508182704 12 92 3.2 3.2 0.00 0.56 0.28 97 1006.4
20260508182205 12 355 1.6 3.2 0.00 0.56 0.28 97 1006.4
20260508181704 12 343 1.6 4.8 0.00 0.56 0.28 97 1006.5
20260508181204 12 300 3.2 4.8 0.00 0.56 0.28 97 1006.6
20260508180705 12 308 3.2 3.2 0.00 0.56 0.28 97 1006.5
20260508180204 12 353 1.6 3.2 0.00 0.56 0.28 97 1006.3
20260508175704 12 354 1.6 3.2 0.00 0.56 0.28 97 1006.3
20260508175205 12 322 1.6 3.2 0.00 0.56 0.28 97 1006.5
20260508174704 12 114 0.0 1.6 0.00 0.56 0.28 96 1006.4
20260508173705 13 315 0.0 0.0 0.00 0.56 0.28 96 1006.4
20260508172204 13 311 3.2 8.0 0.00 0.56 0.28 97 1006.4
20260508171704 14 0 4.8 9.7 0.00 0.56 0.28 97 1006.3
20260508171204 14 9 4.8 9.7 0.00 0.56 0.28 97 1006.5
20260508170704 14 351 6.4 9.7 0.00 0.56 0.28 97 1006.3
20260508165704 14 349 6.4 11.3 0.00 0.56 0.28 97 1006.3
20260508165205 14 10 8.0 14.5 0.00 0.56 0.28 97 1006.2
20260508164705 14 25 8.0 14.5 0.00 0.56 0.28 97 1006.3
20260508164204 14 19 8.0 14.5 0.00 0.56 0.28 97 1006.3
20260508163704 14 22 8.0 12.9 0.00 0.56 0.28 97 1006.4
20260508163205 14 14 8.0 11.3 0.00 0.56 0.28 97 1006.6
20260508162704 14 13 8.0 9.7 0.00 0.56 0.28 97 1006.6
20260508161704 14 357 6.4 11.3 0.03 0.56 0.28 96 1006.8
20260508161204 14 7 6.4 9.7 0.03 0.56 0.28 96 1006.6
20260508160705 14 4 8.0 12.9 0.03 0.56 0.28 96 1006.7
20260508160204 14 18 8.0 14.5 0.03 0.56 0.28 96 1006.5
20260508155704 15 23 11.3 14.5 0.03 0.56 0.28 96 1006.6
20260508155204 15 19 4.8 11.3 0.03 0.56 0.28 96 1006.7
20260508154704 15 19 8.0 14.5 0.03 0.56 0.28 96 1006.9
20260508154204 15 13 8.0 11.3 0.03 0.56 0.28 96 1006.9
20260508153704 15 5 6.4 11.3 0.03 0.56 0.28 96 1007.0
20260508153205 15 8 9.7 12.9 0.00 0.56 0.25 96 1007.1
20260508152704 15 5 4.8 12.9 0.00 0.56 0.25 96 1007.2
20260508152204 15 355 4.8 8.0 0.00 0.56 0.25 96 1007.2
20260508151704 15 21 3.2 4.8 0.00 0.56 0.25 96 1007.2
20260508151205 15 335 3.2 4.8 0.00 0.56 0.25 96 1007.2
20260508150704 15 328 4.8 8.0 0.03 0.56 0.25 96 1007.4
20260508150205 15 338 3.2 4.8 0.10 0.56 0.25 96 1007.3
20260508145705 15 13 3.2 8.0 0.10 0.56 0.25 96 1007.7
20260508144704 15 14 3.2 4.8 0.10 0.56 0.25 96 1007.2
20260508144204 15 18 3.2 3.2 0.10 0.56 0.25 96 1007.1
20260508143705 15 12 1.6 3.2 0.10 0.56 0.25 96 1007.1
20260508143204 15 18 3.2 3.2 0.10 0.56 0.25 96 1007.1
20260508142705 15 359 1.6 3.2 0.10 0.56 0.25 96 1006.9
20260508142204 15 5 1.6 3.2 0.10 0.56 0.25 96 1007.1
20260508141704 15 16 1.6 4.8 0.10 0.53 0.23 96 1007.3
20260508141204 15 4 3.2 8.0 0.13 0.53 0.23 95 1007.5
20260508140705 15 337 4.8 9.7 0.10 0.51 0.23 95 1007.6
20260508135705 15 319 8.0 11.3 0.03 0.43 0.15 95 1007.6
20260508135204 15 332 4.8 8.0 0.03 0.43 0.15 95 1007.5
20260508134704 15 330 8.0 16.1 0.05 0.43 0.15 95 1007.4
20260508134204 15 330 4.8 9.7 0.05 0.43 0.15 95 1007.4
20260508133705 15 306 6.4 12.9 0.08 0.43 0.15 95 1007.5
20260508132705 15 277 6.4 12.9 0.15 0.43 0.15 95 1007.6
20260508132204 15 278 8.0 16.1 0.15 0.43 0.15 95 1007.7
20260508131705 16 278 9.7 19.3 0.15 0.43 0.15 94 1007.5
20260508131204 16 291 11.3 20.9 0.13 0.43 0.13 94 1007.7
20260508130704 16 289 11.3 20.9 0.10 0.41 0.10 94 1007.6
20260508130205 16 287 16.1 27.4 0.10 0.41 0.10 94 1007.9
20260508124205 17 297 22.5 32.2 0.10 0.41 0.10 94 1007.8
20260508123704 17 311 19.3 35.4 0.08 0.38 0.08 94 1007.6
20260508123204 17 346 12.9 27.4 0.00 0.30 0.00 93 1007.0
20260508122704 17 17 17.7 29.0 0.00 0.30 0.00 93 1006.4
20260508122204 17 12 16.1 29.0 0.00 0.30 0.00 92 1006.7
20260508121704 17 14 14.5 29.0 0.00 0.30 0.00 92 1006.7
20260508120704 17 28 16.1 33.8 0.00 0.30 0.00 91 1006.9
20260508120204 17 18 14.5 27.4 0.00 0.30 0.00 91 1006.9
20260508115704 16 18 16.1 24.1 0.00 0.30 0.30 91 1007.2
20260508115205 16 27 14.5 22.5 0.00 0.30 0.30 91 1007.3
20260508114704 16 26 8.0 19.3 0.00 0.30 0.30 91 1007.2
20260508114204 16 33 8.0 14.5 0.03 0.30 0.30 91 1007.4
20260508113705 16 16 6.4 11.3 0.05 0.30 0.30 91 1007.5
20260508113205 16 25 4.8 8.0 0.05 0.30 0.30 91 1007.6
20260508112704 16 29 3.2 8.0 0.08 0.30 0.30 91 1007.5
20260508111704 16 31 3.2 8.0 0.08 0.30 0.30 92 1007.7
20260508111204 16 51 3.2 8.0 0.10 0.30 0.30 91 1007.6
20260508110704 16 50 3.2 11.3 0.13 0.30 0.30 91 1007.7
20260508110204 16 49 4.8 8.0 0.15 0.30 0.30 91 1008.2
20260508105704 16 34 6.4 9.7 0.18 0.30 0.30 90 1008.1
20260508105204 17 0 4.8 16.1 0.20 0.30 0.30 90 1008.3
20260508104705 17 18 9.7 27.4 0.20 0.28 0.28 89 1008.4
20260508104204 17 17 9.7 22.5 0.18 0.28 0.28 89 1008.5
20260508103704 17 14 11.3 16.1 0.18 0.25 0.25 89 1008.5
20260508103204 17 18 11.3 20.9 0.15 0.23 0.23 89 1008.6
20260508102204 17 0 9.7 27.4 0.15 0.23 0.23 89 1009.0
20260508101704 17 13 9.7 19.3 0.15 0.23 0.23 88 1009.0
20260508101205 17 15 12.9 24.1 0.15 0.20 0.20 88 1009.0
20260508100704 17 22 9.7 25.7 0.10 0.18 0.18 87 1009.0
20260508095704 17 11 9.7 25.7 0.05 0.13 0.13 86 1009.5
20260508095204 17 16 14.5 32.2 0.05 0.10 0.10 85 1009.3
20260508094704 17 19 9.7 20.9 0.03 0.08 0.08 85 1009.5
20260508093704 17 2 6.4 14.5 0.03 0.08 0.08 86 1009.8
20260508093204 17 351 9.7 19.3 0.03 0.08 0.08 86 1010.0
20260508092704 17 331 8.0 22.5 0.03 0.08 0.08 86 1010.0
20260508092204 17 355 8.0 22.5 0.00 0.08 0.08 86 1010.2
20260508091704 17 341 9.7 19.3 0.03 0.08 0.08 87 1010.1
20260508091204 17 356 9.7 16.1 0.03 0.08 0.08 87 1010.0
20260508090704 17 333 8.0 16.1 0.03 0.08 0.08 88 1009.7
20260508090205 17 320 4.8 12.9 0.03 0.08 0.08 88 1009.9
20260508085704 17 323 9.7 19.3 0.03 0.08 0.08 88 1010.0
20260508085204 17 319 8.0 11.3 0.03 0.05 0.05 89 1009.9
20260508084205 17 56 4.8 9.7 0.03 0.05 0.05 90 1009.3
20260508083704 17 83 3.2 4.8 0.05 0.05 0.05 90 1009.7
20260508083204 17 33 1.6 3.2 0.05 0.05 0.05 90 1009.9
20260508082704 17 62 1.6 9.7 0.05 0.05 0.05 90 1010.0
20260508082203 17 30 4.8 8.0 0.05 0.05 0.05 90 1009.9
20260508081204 17 65 3.2 8.0 0.05 0.05 0.05 89 1009.8
20260508080704 17 36 3.2 8.0 0.05 0.05 0.05 89 1010.2
20260508080204 17 11 4.8 9.7 0.05 0.05 0.05 89 1010.4
20260508075704 17 0 4.8 12.9 0.05 0.05 0.05 89 1010.3
20260508075204 17 18 3.2 20.9 0.05 0.05 0.05 89 1010.0
20260508074704 17 19 6.4 16.1 0.03 0.03 0.03 89 1010.1
20260508074204 17 24 11.3 20.9 0.03 0.03 0.03 89 1010.0
20260508073704 16 38 9.7 19.3 0.03 0.03 0.03 90 1009.8
20260508073204 16 47 11.3 22.5 0.03 0.03 0.03 90 1009.9
20260508072704 16 36 9.7 19.3 0.03 0.03 0.03 91 1009.8
20260508072204 16 31 4.8 8.0 0.03 0.03 0.03 91 1010.2
20260508071704 16 67 1.6 8.0 0.00 0.00 0.00 91 1010.1
20260508071204 16 114 1.6 3.2 0.00 0.00 0.00 91 1010.1
20260508070704 16 23 0.0 4.8 0.00 0.00 0.00 92 1010.3
20260508070204 16 52 3.2 8.0 0.00 0.00 0.00 92 1010.3
20260508065703 16 58 3.2 4.8 0.00 0.00 0.00 92 1010.4
20260508065204 16 215 3.2 3.2 0.00 0.00 0.00 92 1010.5
20260508064704 16 239 3.2 3.2 0.00 0.00 0.00 92 1010.7
20260508064205 16 277 3.2 3.2 0.00 0.00 0.00 92 1010.9
20260508063704 16 273 1.6 4.8 0.00 0.00 0.00 92 1010.8
20260508063204 16 32 1.6 8.0 0.00 0.00 0.00 92 1010.8
20260508062705 16 5 3.2 8.0 0.00 0.00 0.00 92 1010.8
20260508062203 16 7 3.2 4.8 0.00 0.00 0.00 92 1011.2
20260508061704 16 55 1.6 4.8 0.00 0.00 0.00 92 1011.4
20260508061204 16 3 1.6 4.8 0.00 0.00 0.00 92 1011.8
20260508060704 17 311 3.2 9.7 0.00 0.00 0.00 91 1011.7
20260508060204 17 313 4.8 9.7 0.00 0.00 0.00 91 1011.7
20260508055204 17 28 3.2 14.5 0.00 0.00 0.00 90 1011.8
20260508054704 17 33 9.7 19.3 0.00 0.00 0.00 89 1011.8
20260508054204 17 19 9.7 19.3 0.00 0.00 0.00 89 1012.3
20260508053704 17 358 11.3 20.9 0.00 0.00 0.00 88 1012.5
20260508053205 17 5 11.3 22.5 0.00 0.00 0.00 88 1012.5
20260508052703 17 10 14.5 22.5 0.00 0.00 0.00 87 1012.3
20260508051704 17 27 8.0 20.9 0.00 0.00 0.00 86 1012.6
20260508051204 17 33 4.8 9.7 0.00 0.00 0.00 86 1012.6
20260508050204 17 358 3.2 9.7 0.00 0.00 0.00 86 1012.7
20260508045204 17 19 8.0 11.3 0.00 0.00 0.00 87 1012.8
20260508044705 17 10 8.0 11.3 0.00 0.00 0.00 87 1012.7
20260508044204 17 358 3.2 8.0 0.00 0.00 0.00 87 1012.9
20260508043204 17 7 4.8 11.3 0.00 0.00 0.00 87 1012.7
20260508042204 17 21 9.7 24.1 0.00 0.00 0.00 87 1012.6
20260508041705 18 24 9.7 19.3 0.00 0.00 0.00 87 1013.1
20260508041204 18 5 11.3 22.5 0.00 0.00 0.00 86 1013.5
20260508040704 18 3 9.7 20.9 0.00 0.00 0.00 87 1013.2
20260508040204 17 30 14.5 22.5 0.00 0.00 0.00 87 1013.1
20260508034704 18 28 9.7 22.5 0.00 0.00 0.00 86 1012.7
20260508034204 18 24 17.7 40.2 0.00 0.00 0.00 83 1013.0